User: anonymous   Login
Location: Unspecified
(0.0000°N, 0.0000°E)
Time: 05:48:25
(UTC+00:00)
Language:

TBA - TO BE ASSIGNED - Orbit

View from above orbital plane
View from above orbital plane
View from above satellite
View from above satellite

Ground track
Ground track

The orbit is defined by the following mean orbital elements,

1 67831U          26145.15542832 +.00000000 +00000-0 +41698-3 0 00007
2 67831  42.9994 195.6403 0001257 277.5447  82.5262 15.27587980    00
Epoch (UTC): 25 May 2026 03:43:49
Eccentricity: 0.0001257
inclination: 42.9994°
perigee height: 482 km
apogee height: 484 km
right ascension of ascending node: 195.6403°
argument of perigee: 277.5447°
revolutions per day: 15.27587980
mean anomaly at epoch: 82.5262°

The dashed part of the orbit path shows where the satellite is in the earth's shadow,  

DLR